Time,TemperatureF,DewpointF,PressureIn,WindDirection,WindDirectionDegrees,WindSpeedMPH,WindSpeedGustMPH,Humidity,HourlyPrecipIn,Conditions,Clouds,dailyrainin,SoftwareType,DateUTC
2013-04-01 00:02:00,27.0,17.0,30.02,NNW,347,2.0,7.0,65,0.00,,,0.01,,2013-04-01 05:02:00,
2013-04-01 00:12:00,27.0,17.0,30.02,NNW,347,2.0,7.0,65,0.00,,,0.01,,2013-04-01 05:12:00,
2013-04-01 00:22:00,27.0,16.0,30.02,NW,325,2.0,6.0,62,0.00,,,0.01,,2013-04-01 05:22:00,
2013-04-01 00:32:00,26.0,14.0,30.03,NNE,29,2.0,8.0,59,0.00,,,0.01,,2013-04-01 05:32:00,
2013-04-01 00:42:00,26.0,14.0,30.03,NNE,29,2.0,8.0,59,0.00,,,0.01,,2013-04-01 05:42:00,
2013-04-01 00:53:00,26.0,14.0,30.03,North,355,3.0,9.0,61,0.00,,,0.01,,2013-04-01 05:53:00,
2013-04-01 01:02:00,26.0,13.0,30.03,North,360,2.0,8.0,57,0.00,,,0.01,,2013-04-01 06:02:00,
2013-04-01 01:12:00,26.0,13.0,30.03,North,360,2.0,8.0,57,0.00,,,0.01,,2013-04-01 06:12:00,
2013-04-01 01:22:00,26.0,13.0,30.03,NNW,336,2.0,6.0,57,0.00,,,0.01,,2013-04-01 06:22:00,
2013-04-01 01:33:00,26.0,13.0,30.04,East,84,2.0,7.0,58,0.00,,,0.01,,2013-04-01 06:33:00,
2013-04-01 01:42:00,26.0,13.0,30.04,East,84,2.0,7.0,58,0.00,,,0.01,,2013-04-01 06:42:00,
2013-04-01 01:52:00,26.0,14.0,30.05,NW,325,1.0,9.0,59,0.00,,,0.01,,2013-04-01 06:52:00,
2013-04-01 02:02:00,26.0,14.0,30.05,NNW,330,2.0,6.0,59,0.00,,,0.01,,2013-04-01 07:02:00,
2013-04-01 02:12:00,26.0,14.0,30.05,NNW,330,2.0,6.0,59,0.00,,,0.01,,2013-04-01 07:12:00,
2013-04-01 02:22:00,26.0,13.0,30.05,East,95,2.0,7.0,57,0.00,,,0.01,,2013-04-01 07:22:00,
2013-04-01 02:32:00,25.0,13.0,30.05,NE,35,1.0,4.0,59,0.00,,,0.01,,2013-04-01 07:32:00,
2013-04-01 02:42:00,25.0,13.0,30.05,NE,35,1.0,4.0,59,0.00,,,0.01,,2013-04-01 07:42:00,
2013-04-01 02:53:00,25.0,13.0,30.06,NNE,15,2.0,5.0,59,0.00,,,0.01,,2013-04-01 07:53:00,
2013-04-01 03:02:00,26.0,12.0,30.06,NNW,346,2.0,6.0,56,0.00,,,0.01,,2013-04-01 08:02:00,
2013-04-01 03:12:00,26.0,12.0,30.06,NNW,346,2.0,6.0,56,0.00,,,0.01,,2013-04-01 08:12:00,
2013-04-01 03:22:00,25.0,11.0,30.06,NW,311,3.0,10.0,55,0.00,,,0.01,,2013-04-01 08:22:00,
2013-04-01 03:32:00,25.0,11.0,30.06,North,350,1.0,9.0,54,0.00,,,0.01,,2013-04-01 08:32:00,
2013-04-01 03:43:00,25.0,11.0,30.06,North,350,1.0,9.0,54,0.00,,,0.01,,2013-04-01 08:43:00,
2013-04-01 03:53:00,25.0,11.0,30.07,NNE,30,3.0,10.0,55,0.00,,,0.01,,2013-04-01 08:53:00,
2013-04-01 04:02:00,25.0,12.0,30.07,North,349,3.0,6.0,57,0.00,,,0.01,,2013-04-01 09:02:00,
2013-04-01 04:12:00,25.0,12.0,30.07,North,349,3.0,6.0,57,0.00,,,0.01,,2013-04-01 09:12:00,
2013-04-01 04:22:00,25.0,12.0,30.08,NW,324,2.0,6.0,57,0.00,,,0.01,,2013-04-01 09:22:00,
2013-04-01 04:33:00,25.0,12.0,30.08,North,355,2.0,5.0,56,0.00,,,0.01,,2013-04-01 09:33:00,
2013-04-01 04:42:00,25.0,12.0,30.08,North,355,2.0,5.0,56,0.00,,,0.01,,2013-04-01 09:42:00,
2013-04-01 04:53:00,24.0,11.0,30.08,WNW,300,2.0,7.0,57,0.00,,,0.01,,2013-04-01 09:53:00,
2013-04-01 05:03:00,24.0,12.0,30.08,NE,34,1.0,4.0,59,0.00,,,0.01,,2013-04-01 10:03:00,
2013-04-01 05:12:00,24.0,12.0,30.08,NE,34,1.0,4.0,59,0.00,,,0.01,,2013-04-01 10:12:00,
2013-04-01 05:23:00,24.0,12.0,30.09,NNE,27,1.0,6.0,59,0.00,,,0.01,,2013-04-01 10:23:00,
2013-04-01 05:33:00,24.0,11.0,30.09,North,5,2.0,6.0,58,0.00,,,0.01,,2013-04-01 10:33:00,
2013-04-01 05:42:00,24.0,11.0,30.09,North,5,2.0,6.0,58,0.00,,,0.01,,2013-04-01 10:42:00,
2013-04-01 05:53:00,24.0,12.0,30.09,NW,315,1.0,4.0,59,0.00,,,0.01,,2013-04-01 10:53:00,
2013-04-01 06:03:00,24.0,12.0,30.10,North,355,1.0,4.0,60,0.00,,,0.01,,2013-04-01 11:03:00,
2013-04-01 06:12:00,24.0,12.0,30.10,North,355,1.0,4.0,60,0.00,,,0.01,,2013-04-01 11:12:00,
2013-04-01 06:23:00,25.0,14.0,30.10,North,349,1.0,7.0,62,0.00,,,0.01,,2013-04-01 11:23:00,
2013-04-01 06:33:00,25.0,14.0,30.10,North,349,1.0,7.0,62,0.00,,,0.01,,2013-04-01 11:33:00,
2013-04-01 06:42:00,25.0,14.0,30.10,North,349,1.0,7.0,62,0.00,,,0.01,,2013-04-01 11:42:00,
2013-04-01 06:53:00,24.0,16.0,30.11,WSW,254,2.0,7.0,71,0.00,,,0.01,,2013-04-01 11:53:00,
2013-04-01 07:02:00,24.0,16.0,30.11,NNW,333,0.0,6.0,71,0.00,,,0.01,,2013-04-01 12:02:00,
2013-04-01 07:12:00,24.0,16.0,30.11,NNW,333,0.0,6.0,71,0.00,,,0.01,,2013-04-01 12:12:00,
2013-04-01 07:22:00,24.0,15.0,30.12,North,355,3.0,7.0,67,0.00,,,0.01,,2013-04-01 12:22:00,
2013-04-01 07:32:00,23.0,13.0,30.12,NW,313,2.0,5.0,65,0.00,,,0.01,,2013-04-01 12:32:00,
2013-04-01 07:42:00,23.0,13.0,30.12,NW,313,2.0,5.0,65,0.00,,,0.01,,2013-04-01 12:42:00,
2013-04-01 07:53:00,23.0,13.0,30.13,West,275,2.0,6.0,66,0.00,,,0.01,,2013-04-01 12:53:00,
2013-04-01 08:02:00,23.0,14.0,30.13,West,275,2.0,8.0,67,0.00,,,0.01,,2013-04-01 13:02:00,
2013-04-01 08:12:00,23.0,14.0,30.13,West,275,2.0,8.0,67,0.00,,,0.01,,2013-04-01 13:12:00,
2013-04-01 08:22:00,24.0,14.0,30.14,NNW,331,2.0,8.0,65,0.00,,,0.01,,2013-04-01 13:22:00,
2013-04-01 08:32:00,23.0,13.0,30.14,West,263,3.0,8.0,66,0.00,,,0.01,,2013-04-01 13:32:00,
2013-04-01 08:42:00,23.0,13.0,30.14,West,263,3.0,8.0,66,0.00,,,0.01,,2013-04-01 13:42:00,
2013-04-01 08:52:00,23.0,13.0,30.14,West,263,3.0,8.0,66,0.00,,,0.01,,2013-04-01 13:52:00,
2013-04-01 09:03:00,23.0,13.0,30.14,West,263,3.0,8.0,66,0.00,,,0.01,,2013-04-01 14:03:00,
2013-04-01 09:12:00,23.0,13.0,30.14,West,263,3.0,8.0,66,0.00,,,0.01,,2013-04-01 14:12:00,
2013-04-01 09:23:00,24.0,15.0,30.15,NNW,329,3.0,10.0,67,0.00,,,0.01,,2013-04-01 14:23:00,
2013-04-01 09:33:00,25.0,15.0,30.16,West,270,4.0,9.0,65,0.00,,,0.01,,2013-04-01 14:33:00,
2013-04-01 09:43:00,25.0,15.0,30.16,West,270,4.0,9.0,65,0.00,,,0.01,,2013-04-01 14:43:00,
2013-04-01 09:53:00,25.0,15.0,30.16,NW,320,2.0,10.0,65,0.00,,,0.01,,2013-04-01 14:53:00,
2013-04-01 10:03:00,25.0,13.0,30.16,NNW,336,4.0,8.0,61,0.00,,,0.01,,2013-04-01 15:03:00,
2013-04-01 10:13:00,25.0,13.0,30.16,NNW,336,4.0,8.0,61,0.00,,,0.01,,2013-04-01 15:13:00,
2013-04-01 10:22:00,25.0,13.0,30.16,NNW,336,4.0,8.0,61,0.00,,,0.01,,2013-04-01 15:22:00,
2013-04-01 10:34:00,26.0,14.0,30.17,NE,49,4.0,7.0,59,0.00,,,0.00,,2013-04-01 15:34:00,
2013-04-01 10:43:00,26.0,14.0,30.17,NE,49,4.0,7.0,59,0.00,,,0.00,,2013-04-01 15:43:00,
2013-04-01 10:54:00,27.0,15.0,30.17,NNW,343,2.0,8.0,59,0.00,,,0.00,,2013-04-01 15:54:00,
2013-04-01 11:03:00,27.0,15.0,30.17,NNW,342,4.0,8.0,60,0.00,,,0.00,,2013-04-01 16:03:00,
2013-04-01 11:13:00,27.0,15.0,30.17,NNW,342,4.0,8.0,60,0.00,,,0.00,,2013-04-01 16:13:00,
2013-04-01 11:23:00,28.0,15.0,30.18,NW,304,3.0,10.0,58,0.00,,,0.00,,2013-04-01 16:23:00,
2013-04-01 11:33:00,27.0,14.0,30.18,NW,309,3.0,9.0,57,0.00,,,0.00,,2013-04-01 16:33:00,
2013-04-01 11:42:00,27.0,14.0,30.18,NW,309,3.0,9.0,57,0.00,,,0.00,,2013-04-01 16:42:00,
2013-04-01 11:53:00,28.0,14.0,30.18,NW,321,3.0,9.0,54,0.00,,,0.00,,2013-04-01 16:53:00,
2013-04-01 12:03:00,28.0,14.0,30.18,NNW,340,3.0,8.0,55,0.00,,,0.00,,2013-04-01 17:03:00,
2013-04-01 12:12:00,28.0,14.0,30.18,NNW,340,3.0,8.0,55,0.00,,,0.00,,2013-04-01 17:12:00,
2013-04-01 12:22:00,28.0,12.0,30.18,NNE,24,4.0,9.0,51,0.00,,,0.00,,2013-04-01 17:22:00,
2013-04-01 12:32:00,28.0,12.0,30.18,NNE,24,4.0,9.0,51,0.00,,,0.00,,2013-04-01 17:32:00,
2013-04-01 12:42:00,28.0,12.0,30.18,NNE,24,4.0,9.0,51,0.00,,,0.00,,2013-04-01 17:42:00,
2013-04-01 12:53:00,29.0,12.0,30.18,NNW,348,5.0,11.0,48,0.00,,,0.00,,2013-04-01 17:53:00,
2013-04-01 13:02:00,30.0,14.0,30.18,NNW,332,3.0,11.0,50,0.00,,,0.00,,2013-04-01 18:02:00,
2013-04-01 13:12:00,30.0,14.0,30.18,NNW,332,3.0,11.0,50,0.00,,,0.00,,2013-04-01 18:12:00,
2013-04-01 13:22:00,30.0,14.0,30.18,NNW,332,3.0,11.0,50,0.00,,,0.00,,2013-04-01 18:22:00,
2013-04-01 13:32:00,29.0,12.0,30.18,NNW,330,4.0,11.0,48,0.00,,,0.00,,2013-04-01 18:32:00,
2013-04-01 13:42:00,29.0,12.0,30.18,NNW,330,4.0,11.0,48,0.00,,,0.00,,2013-04-01 18:42:00,
2013-04-01 13:53:00,31.0,15.0,30.18,NW,324,3.0,7.0,50,0.00,,,0.00,,2013-04-01 18:53:00,
2013-04-01 14:03:00,31.0,13.0,30.17,NNE,16,3.0,8.0,47,0.00,,,0.00,,2013-04-01 19:03:00,
2013-04-01 14:12:00,31.0,13.0,30.17,NNE,16,3.0,8.0,47,0.00,,,0.00,,2013-04-01 19:12:00,
2013-04-01 14:23:00,31.0,13.0,30.17,NNW,327,3.0,8.0,46,0.00,,,0.00,,2013-04-01 19:23:00,
2013-04-01 14:32:00,31.0,13.0,30.17,WNW,298,3.0,8.0,47,0.00,,,0.00,,2013-04-01 19:32:00,
2013-04-01 14:42:00,31.0,13.0,30.17,WNW,298,3.0,8.0,47,0.00,,,0.00,,2013-04-01 19:42:00,
2013-04-01 14:53:00,32.0,13.0,30.16,NNW,333,3.0,11.0,45,0.00,,,0.00,,2013-04-01 19:53:00,
2013-04-01 15:02:00,32.0,13.0,30.16,WNW,284,4.0,10.0,44,0.00,,,0.00,,2013-04-01 20:02:00,
2013-04-01 15:12:00,32.0,13.0,30.16,WNW,284,4.0,10.0,44,0.00,,,0.00,,2013-04-01 20:12:00,
2013-04-01 15:22:00,32.0,13.0,30.16,SSW,212,3.0,10.0,44,0.00,,,0.00,,2013-04-01 20:22:00,
2013-04-01 15:32:00,33.0,13.0,30.16,NW,306,4.0,11.0,44,0.00,,,0.00,,2013-04-01 20:32:00,
2013-04-01 15:42:00,33.0,13.0,30.16,NW,306,4.0,11.0,44,0.00,,,0.00,,2013-04-01 20:42:00,
2013-04-01 15:52:00,33.0,12.0,30.15,NW,316,4.0,9.0,42,0.00,,,0.00,,2013-04-01 20:52:00,
2013-04-01 16:02:00,33.0,14.0,30.15,WSW,247,2.0,7.0,45,0.00,,,0.00,,2013-04-01 21:02:00,
2013-04-01 16:12:00,33.0,14.0,30.15,WSW,247,2.0,7.0,45,0.00,,,0.00,,2013-04-01 21:12:00,
2013-04-01 16:22:00,33.0,13.0,30.14,West,267,3.0,15.0,43,0.00,,,0.00,,2013-04-01 21:22:00,
2013-04-01 16:32:00,34.0,13.0,30.14,WNW,292,4.0,11.0,42,0.00,,,0.00,,2013-04-01 21:32:00,
2013-04-01 16:43:00,34.0,13.0,30.14,WNW,292,4.0,11.0,42,0.00,,,0.00,,2013-04-01 21:43:00,
2013-04-01 16:52:00,33.0,12.0,30.14,NNW,333,4.0,10.0,42,0.00,,,0.00,,2013-04-01 21:52:00,
2013-04-01 17:02:00,34.0,13.0,30.14,NNW,331,4.0,10.0,41,0.00,,,0.00,,2013-04-01 22:02:00,
2013-04-01 17:12:00,34.0,13.0,30.14,NNW,331,4.0,10.0,41,0.00,,,0.00,,2013-04-01 22:12:00,
2013-04-01 17:22:00,34.0,13.0,30.14,NW,304,4.0,12.0,42,0.00,,,0.00,,2013-04-01 22:22:00,
2013-04-01 17:33:00,34.0,13.0,30.14,North,355,4.0,12.0,41,0.00,,,0.00,,2013-04-01 22:33:00,
2013-04-01 17:43:00,34.0,13.0,30.14,North,355,4.0,12.0,41,0.00,,,0.00,,2013-04-01 22:43:00,
2013-04-01 17:52:00,34.0,13.0,30.14,North,355,3.0,8.0,41,0.00,,,0.00,,2013-04-01 22:52:00,
2013-04-01 18:02:00,35.0,14.0,30.14,West,259,2.0,11.0,41,0.00,,,0.00,,2013-04-01 23:02:00,
2013-04-01 18:12:00,35.0,14.0,30.14,West,259,2.0,11.0,41,0.00,,,0.00,,2013-04-01 23:12:00,
2013-04-01 18:23:00,34.0,12.0,30.14,WNW,290,4.0,11.0,40,0.00,,,0.00,,2013-04-01 23:23:00,
2013-04-01 18:32:00,34.0,13.0,30.14,NW,313,2.0,8.0,42,0.00,,,0.00,,2013-04-01 23:32:00,
2013-04-01 18:43:00,34.0,13.0,30.14,NW,313,2.0,8.0,42,0.00,,,0.00,,2013-04-01 23:43:00,
2013-04-01 18:52:00,34.0,13.0,30.13,NNW,327,1.0,9.0,41,0.00,,,0.00,,2013-04-01 23:52:00,
2013-04-01 19:03:00,34.0,13.0,30.13,WNW,297,2.0,7.0,41,0.00,,,0.00,,2013-04-02 00:03:00,
2013-04-01 19:12:00,34.0,13.0,30.13,WNW,297,2.0,7.0,41,0.00,,,0.00,,2013-04-02 00:12:00,
2013-04-01 19:22:00,33.0,12.0,30.13,WSW,254,2.0,7.0,42,0.00,,,0.00,,2013-04-02 00:22:00,
2013-04-01 19:33:00,33.0,13.0,30.13,WNW,290,2.0,7.0,43,0.00,,,0.00,,2013-04-02 00:33:00,
2013-04-01 19:42:00,33.0,13.0,30.13,WNW,290,2.0,7.0,43,0.00,,,0.00,,2013-04-02 00:42:00,
2013-04-01 19:52:00,32.0,13.0,30.13,NNW,329,0.0,9.0,45,0.00,,,0.00,,2013-04-02 00:52:00,
2013-04-01 20:02:00,32.0,14.0,30.14,West,275,0.0,7.0,47,0.00,,,0.00,,2013-04-02 01:02:00,
2013-04-01 20:12:00,32.0,14.0,30.14,West,275,0.0,7.0,47,0.00,,,0.00,,2013-04-02 01:12:00,
2013-04-01 20:22:00,31.0,14.0,30.14,WNW,300,1.0,5.0,48,0.00,,,0.00,,2013-04-02 01:22:00,
2013-04-01 20:32:00,31.0,14.0,30.14,West,261,1.0,4.0,49,0.00,,,0.00,,2013-04-02 01:32:00,
2013-04-01 20:42:00,31.0,14.0,30.14,West,261,1.0,4.0,49,0.00,,,0.00,,2013-04-02 01:42:00,
2013-04-01 20:52:00,31.0,14.0,30.14,West,261,1.0,4.0,49,0.00,,,0.00,,2013-04-02 01:52:00,
2013-04-01 21:02:00,31.0,15.0,30.15,WNW,298,1.0,3.0,50,0.00,,,0.00,,2013-04-02 02:02:00,
2013-04-01 21:12:00,31.0,15.0,30.15,WNW,298,1.0,3.0,50,0.00,,,0.00,,2013-04-02 02:12:00,
2013-04-01 21:22:00,30.0,14.0,30.15,WNW,300,0.0,4.0,50,0.00,,,0.00,,2013-04-02 02:22:00,
2013-04-01 21:32:00,30.0,14.0,30.16,WNW,300,0.0,2.0,51,0.00,,,0.00,,2013-04-02 02:32:00,
2013-04-01 21:42:00,30.0,14.0,30.16,WNW,300,0.0,2.0,51,0.00,,,0.00,,2013-04-02 02:42:00,
2013-04-01 21:52:00,29.0,13.0,30.16,West,264,0.0,2.0,50,0.00,,,0.00,,2013-04-02 02:52:00,
2013-04-01 22:02:00,29.0,13.0,30.16,West,264,0.0,3.0,50,0.00,,,0.00,,2013-04-02 03:02:00,
2013-04-01 22:12:00,29.0,13.0,30.16,West,264,0.0,3.0,50,0.00,,,0.00,,2013-04-02 03:12:00,
2013-04-01 22:22:00,29.0,13.0,30.17,West,265,1.0,2.0,50,0.00,,,0.00,,2013-04-02 03:22:00,
2013-04-01 22:33:00,29.0,13.0,30.17,West,265,0.0,2.0,51,0.00,,,0.00,,2013-04-02 03:33:00,
2013-04-01 22:43:00,29.0,13.0,30.17,West,265,0.0,2.0,51,0.00,,,0.00,,2013-04-02 03:43:00,
2013-04-01 22:53:00,28.0,14.0,30.17,West,265,0.0,2.0,55,0.00,,,0.00,,2013-04-02 03:53:00,
2013-04-01 23:03:00,28.0,15.0,30.18,SW,229,1.0,4.0,58,0.00,,,0.00,,2013-04-02 04:03:00,
2013-04-01 23:13:00,28.0,15.0,30.18,SW,229,1.0,4.0,58,0.00,,,0.00,,2013-04-02 04:13:00,
2013-04-01 23:23:00,28.0,15.0,30.18,SW,229,1.0,4.0,58,0.00,,,0.00,,2013-04-02 04:23:00,
2013-04-01 23:32:00,28.0,15.0,30.18,SW,229,1.0,4.0,58,0.00,,,0.00,,2013-04-02 04:32:00,
2013-04-01 23:43:00,28.0,15.0,30.18,SW,229,1.0,4.0,58,0.00,,,0.00,,2013-04-02 04:43:00,
2013-04-01 23:52:00,27.0,15.0,30.18,West,281,1.0,4.0,61,0.00,,,0.00,,2013-04-02 04:52:00,